Buffalo, NY

1:05 PM EST on December 11, 2017 (GMT -0500)
Buffalo Niagara International

Weather History for KBUF - December, 2012

Change the Weather History Date:

Tuesday, December 11, 2012

  Actual Average Record
Temperature  
Mean Temperature 32 °F 31 °F  
Max Temperature 35 °F 37 °F 61 °F (1899)
Min Temperature 29 °F 25 °F -6 °F (1960)
Degree Days  
Heating Degree Days 33 34  
Month to date heating degree days 255 351  
Since 1 July heating degree days 1534 1684  
Cooling Degree Days 0 0  
Month to date cooling degree days 0 0  
Year to date cooling degree days 875 544  
Moisture  
Dew Point 24 °F    
Average Humidity 73    
Maximum Humidity 85    
Minimum Humidity 61    
Precipitation  
Precipitation T in 0.13 in 0.84 in (1992)
Month to date precipitation 1.53 1.38  
Year to date precipitation 30.69 37.97  
Snow  
Snow 0.10 in 0.80 in 8.00 in (2014)
Month to date snowfall 0.1 7.6  
Since 1 July snowfall 2.5 16.4  
Snow Depth 0.00 in    
Sea Level Pressure  
Sea Level Pressure 29.99 in    
Wind  
Wind Speed 6 mph (WNW)    
Max Wind Speed 15 mph    
Max Gust Speed 24 mph    
Visibility 9 miles    
Events Snow    
T = Trace of Precipitation, MM = Missing Value Source: NWS Daily Summary

Daily Weather History Graph

Daily Weather History Graph

Search for Another Location

Airport or City:

Trip Planner

Search our weather history database for the weather conditions in past years. The results will help you decide how hot, cold, wet, or windy it might be!

Date:

Astronomy

Dec. 11, 2012 Rise Set
Actual Time 7:36 AM EST 4:40 PM EST
Civil Twilight 7:04 AM EST 5:12 PM EST
Nautical Twilight 6:28 AM EST 5:48 PM EST
Astronomical Twilight 5:53 AM EST 6:22 PM EST
Moon 5:27 AM EST 3:19 PM EST
Length of Visible Light 10h 08m
Length of Day
9h 04m
Waning Crescent, 4% of the Moon is Illuminated
Dec 11
Waning Crescent
Dec 13
New
Dec 20
First Quarter
Dec 28
Full
Jan 4
Last Quarter

Hourly Weather History & Observations

Time (EST) Temp. Windchill Dew Point Humidity Pressure Visibility Wind Dir Wind Speed Gust Speed Precip Events Conditions
12:09 AM 33.8 °F 24.8 °F 26.6 °F 75% 29.75 in 10.0 mi NW 12.7 mph - N/A   Overcast
12:54 AM 33.1 °F 25.5 °F 26.1 °F 75% 29.80 in 10.0 mi NW 9.2 mph - N/A   Overcast
1:54 AM 33.1 °F 25.5 °F 26.1 °F 75% 29.81 in 10.0 mi NW 9.2 mph - N/A   Overcast
2:52 AM 32.0 °F 24.8 °F 24.8 °F 75% 29.81 in 10.0 mi WNW 8.1 mph - N/A   Mostly Cloudy
2:54 AM 32.0 °F 24.2 °F 25.0 °F 75% 29.84 in 10.0 mi WNW 9.2 mph - N/A   Mostly Cloudy
3:54 AM 30.9 °F 24.3 °F 24.1 °F 76% 29.85 in 10.0 mi NW 6.9 mph - N/A   Mostly Cloudy
4:54 AM 30.9 °F 25.2 °F 23.0 °F 72% 29.88 in 10.0 mi WNW 5.8 mph - N/A   Mostly Cloudy
5:54 AM 30.0 °F 24.1 °F 23.0 °F 75% 29.90 in 10.0 mi NNW 5.8 mph - N/A   Overcast
6:54 AM 30.0 °F 24.1 °F 23.0 °F 75% 29.94 in 10.0 mi NW 5.8 mph - N/A   Overcast
7:54 AM 30.0 °F 26.5 °F 23.0 °F 75% 29.95 in 10.0 mi NNW 3.5 mph - 0.00 in Snow Light Snow
8:54 AM 30.0 °F 26.5 °F 24.1 °F 79% 29.98 in 7.0 mi North 3.5 mph - 0.00 in Snow Light Snow
9:54 AM 30.0 °F - 25.0 °F 82% 30.01 in 5.0 mi Calm Calm - 0.00 in Snow Light Snow
10:33 AM 30.2 °F - 24.8 °F 80% 29.99 in 5.0 mi Calm Calm - 0.00 in Snow Light Snow
10:48 AM 30.2 °F - 24.8 °F 80% 29.98 in 5.0 mi Calm Calm - 0.00 in Snow Light Snow
10:54 AM 30.0 °F - 25.0 °F 82% 30.01 in 8.0 mi Calm Calm - 0.00 in Snow Light Snow
11:23 AM 30.2 °F 25.4 °F 24.8 °F 80% 29.99 in 6.0 mi NNW 4.6 mph - 0.00 in Snow Light Snow
11:54 AM 30.9 °F 26.2 °F 26.1 °F 82% 30.01 in 9.0 mi NW 4.6 mph - 0.00 in Snow Light Snow
12:54 PM 32.0 °F 28.7 °F 25.0 °F 75% 30.02 in 10.0 mi WNW 3.5 mph - 0.00 in   Mostly Cloudy
1:54 PM 34.0 °F 25.0 °F 23.0 °F 64% 30.03 in 10.0 mi WSW 12.7 mph 16.1 mph N/A   Mostly Cloudy
2:54 PM 34.0 °F 26.6 °F 21.0 °F 59% 30.04 in 10.0 mi West 9.2 mph - N/A   Mostly Cloudy
3:54 PM 33.1 °F 24.4 °F 23.0 °F 66% 30.06 in 10.0 mi WSW 11.5 mph - N/A   Mostly Cloudy
4:54 PM 32.0 °F 24.8 °F 21.9 °F 66% 30.07 in 10.0 mi West 8.1 mph - N/A   Partly Cloudy
5:54 PM 32.0 °F 24.8 °F 21.9 °F 66% 30.10 in 10.0 mi West 8.1 mph - N/A   Partly Cloudy
6:54 PM 30.9 °F 25.2 °F 21.9 °F 69% 30.13 in 10.0 mi WNW 5.8 mph - N/A   Clear
7:54 PM 30.0 °F 26.5 °F 21.0 °F 69% 30.13 in 10.0 mi WNW 3.5 mph - N/A   Partly Cloudy
8:54 PM 30.9 °F - 21.9 °F 69% 30.15 in 10.0 mi Calm Calm - N/A   Mostly Cloudy
9:54 PM 30.9 °F 25.2 °F 23.0 °F 72% 30.16 in 9.0 mi South 5.8 mph - 0.00 in Snow Light Snow
10:51 PM 32.0 °F - 26.6 °F 80% 30.14 in 7.0 mi Calm Calm - 0.00 in Snow Light Snow
10:54 PM 32.0 °F - 26.1 °F 79% 30.17 in 6.0 mi Calm Calm - 0.00 in Snow Light Snow
11:18 PM 32.0 °F 28.7 °F 26.6 °F 80% 30.14 in 9.0 mi South 3.5 mph - 0.00 in Snow Light Snow
11:54 PM 30.9 °F 27.5 °F 28.0 °F 89% 30.17 in 7.0 mi SSE 3.5 mph - 0.00 in Snow Light Snow